DMSP 5D-2 F13 DEB, 40504

Orbit data source: Space-Track

DMSP 5D-2 F13 DEB, 40504 is space debris in SSO originally from a launch on Fri, 24 Mar 1995 UTC launched from the Air Force Western Test Range (AFWTR). Debris objects in space refer to the collection of defunct objects orbiting the Earth. Examples of debris include non-operational satellites, rocket bodies, and fragments generated from explosions, collisions, or faulty payload assembly.

Loading next visibility...
Identifier
40504, 1995-015CT
Orbit
SSO
Country
Flag of USUS
Related business
Manufacturer
Unknown
Mission
Spacecraft
Bus & Motor
Unknown
Mass
Unknown
Launch date (UTC)
1995-03-24 (31 years ago)
Launch vehicle
Unknown
Launch site
Air Force Western Test Range (AFWTR)
Object type
Payload
Rocket body
Debris
Shape & HBR
Unknown shape, 0.1 m
Radar Cross Section
Medium (>0.1 m² and <1 m²)

Expand to show TLE details & history
Last TLE update: 5 days ago

TLE from 5 days ago
0 DMSP 5D-2 F13 DEB
1 40504U 95015CT  26249.48376346  .00001460  00000-0  68988-3 0  9990
2 40504  99.0382 257.9361 0044497 245.1159 114.5388 14.20885469590533
Epoch: 2026-09-06T11:36Z
TLE epoch observation values (Epoch: 2026-09-06T11:36:37.162Z)
Latitude
-0.00005°
Longitude
98.20304°
Altitude
838.691 km
Speed
7.427 km/s
True Right ascension
17h 11m 44s
True Declination
0° 00' 00"
Sunlit
Object was in daylight at epoch
Visualization orbit readout
Latitude
Unknown
Longitude
Unknown
Altitude
Unknown
Speed
Unknown
Apparent Right ascension
Unknown
Apparent Declination
Unknown
Sunlit
N/A
Visualization observer readout
Local Sidereal Time
01:16:36
Azimuth
Unknown
Elevation
Unknown
Doppler factor
Unknown
Orbital elements
Apogee altitude
851.561 km
Perigee altitude
787.506 km
Semi-major axis
7,197.67 km
Eccentricity
0.00445
Inclination
99.0382°
RAAN
257.9361°
Arg. of periapsis
245.1159°
True anomaly
115.00157°
Mean anomaly
114.5388°
Eccentric anomaly
114.77029°
Mean motion
3.55431 °/min
Orbital period
101.29 mins
BSTAR
0.00068988
Loading maneuver chart data...
Computing Atmospheric mass density...

Documentation

Showing up to 5 results
|